UWE-4

Last updated on Wed Sep 09 2026 00:03:15 GMT+0000 (Coordinated Universal Time)

1 43880U 18111E 26250.79404913 .00042049 00000+0 71720-3 0 9995 2 43880 97.5815 183.2972 0008355 44.2835 315.9083 15.51197551423568
UTC large
Height (km)
Speed (km/s)
/
Latitude / Longitude
Inclination (degrees)
Orbital Period (minutes)
Azimuth
Elevation
Range (km)
Doppler Factor

Next 0 passes for location: London (51.5072 / 0.1276)

No passes found over London.
UWE-4